Regional Weather Roundup
Issued by NWS State College, PA

Home | Current Version | Previous Version | Graphics & Text | Print | Product List | Glossary Off
Versions: 1 2 3 4 5 6 7 8 9 10 11 12 13 14 15 16 17 18 19 20 21 22 23 24 25 26 27 28 29 30 31 32 33 34 35 36 37 38 39 40 41 42 43 44 45 46 47 48 49 50

570
ASUS41 KCTP 310003
RWRCTP

REGIONAL WEATHER ROUNDUP
NATIONAL WEATHER SERVICE STATE COLLEGE PA
800 PM EDT TUE AUG 30 2016

Note: "fair" indicates few or no clouds below 12,000 feet with no
significant weather and/or obstructions to visibility.

* = STATION THAT DOES NOT REPORT PRECIPITATION /E.G. RAIN...SNOW...ETC/
    THUNDER OR FOG.

PAZ002>004-007>009-013>016-020>023-029>032-310100-
WESTERN PENNSYLVANIA

CITY           SKY/WX    TMP DP  RH WIND       PRES   REMARKS
ERIE           PTCLDY    74  63  68 CALM      30.06S
MEADVILLE      PTCLDY    72  61  68 CALM      30.09S
FRANKLIN*        N/A     72  61  68 CALM      30.10S
NEW CASTLE     FAIR      74  58  57 SE3       30.07F
BEAVER COUNTY  CLEAR     79  55  44 CALM      30.08S
BUTLER*        NOT AVBL
PITTSBURGH INT MOCLDY    79  52  38 W6        30.07S
PITTSBURGH     PTCLDY    80  47  31 CALM      30.06F
INDIANA*       CLEAR     72  63  73 CALM      30.11S
LATROBE        CLEAR     75  57  53 CALM      30.08F
WASHINGTON CO* CLOUDY    68  61  77 CALM      30.08S
$$

PAZ004>006-010>012-017>019-024>028-033>037-041-042-045-046-049>053-310100-
CENTRAL PENNSYLVANIA

CITY           SKY/WX    TMP DP  RH WIND       PRES   REMARKS
BRADFORD       CLOUDY    70  62  76 CALM      30.12S
DUBOIS         CLOUDY    71  60  68 CALM      30.10S
CLEARFIELD     NOT AVBL
JOHNSTOWN      CLEAR     74  56  53 NW7       30.12F
ALTOONA        CLOUDY    72  63  73 NE5       30.09S
STATE COLLEGE  CLEAR     75  59  57 CALM      30.07F
WILLIAMSPORT   PTCLDY    78  61  55 CALM      30.02F
SELINSGROVE    PTCLDY    70  68  93 CALM      30.04F
FT INDIANTOWN  CLEAR     73  64  72 N2        30.04S
CAPITAL CITY   CLEAR     79  60  52 SE5       30.03S
HARRISBURG     MOCLDY    80  67  64 CALM      30.02S
YORK           CLEAR     77  62  59 CALM      30.04S
$$

PAZ038>040-043-044-047-048-054-055-060>062-067>071-310100-
EASTERN PENNSYLVANIA

CITY           SKY/WX    TMP DP  RH WIND       PRES   REMARKS
SCRANTON       CLOUDY    75  61  61 CALM      30.07S
MOUNT POCONO   CLOUDY    64  59  83 W3        30.11S
ALLENTOWN      PTCLDY    78  58  49 CALM      30.04F
QUAKERTOWN*    PTCLDY    75  59  57 CALM      30.06S
READING        PTCLDY    79  58  48 CALM      30.03F
LANCASTER      CLEAR     76  63  64 CALM      30.04F
COATESVILLE    CLEAR     75  57  53 CALM      30.07F
POTTSTOWN      PTCLDY    76  57  51 CALM      30.06S
BLUE BELL      CLEAR     73  61  64 CALM      30.03S
DOYLESTOWN     CLEAR     78  64  61 CALM      30.04S
WILLOW GROVE   NOT AVBL
NORTH PHILA    CLEAR     80  70  71 SE6       30.04S
PHILADELPHIA   PTCLDY    81  69  67 CALM      30.03R
$$




USA.gov is the U.S. government's official web portal to all federal, state and local government web resources and services.